Date String (YYYY-MM-DD hh:mm:ss) UTC,Instrument flags,Ambient pressure (hPa),Sample flow (lpm),Bypass flow (lpm),Sample temperature (°C),Ambient temperature (°C),ASC tube jacket temperature (°C),LED temperature (°C),Box temperature (°C),Sample RH (%),Span deviation,Mass concentration (μg/m³),Mass concentration (μg/m³),Mass concentration (μg/m³)
DateTimeUTC,F1_M11,P_M11,Q1_M11,Q2_M11,T1_M11,T2_M11,T3_M11,T4_M11,T5_M11,U1_M11,ZSPAN_M11,X0_M11,X2_M11,X1_M11
2022-07-25 05:00:00,,0829.8,5.01,0.00,32.0,28.9,00.0,40.4,32.5,35.0,0000.6,0016.18,0008.62,0007.20
2022-07-25 05:01:00,,0829.8,5.00,0.00,32.1,28.9,00.0,40.4,32.6,34.7,0000.5,0016.04,0008.61,0007.21
2022-07-25 05:02:00,,0829.8,4.99,0.00,32.2,28.6,00.0,40.3,32.6,34.5,0000.2,0015.76,0008.60,0007.22
2022-07-25 05:03:00,,0829.8,5.01,0.00,32.3,27.9,00.0,40.2,32.5,34.4,-000.4,0015.40,0008.59,0007.25
2022-07-25 05:04:00,,0829.8,4.99,0.00,32.2,27.6,00.0,40.2,32.4,34.5,-000.2,0015.25,0008.60,0007.28
2022-07-25 05:05:00,,0829.8,5.00,0.00,32.1,27.5,00.0,40.2,32.2,34.8,-000.2,0015.29,0008.63,0007.30
2022-07-25 05:06:00,,0829.8,5.01,0.00,31.9,27.6,00.0,40.2,32.2,35.0,-000.2,0014.88,0008.68,0007.33
2022-07-25 05:07:00,,0829.8,5.00,0.00,32.0,27.7,00.0,40.2,32.3,35.0,0000.5,0015.63,0008.71,0007.35
2022-07-25 05:08:00,,0829.9,4.99,0.00,32.1,27.9,00.0,40.2,32.4,34.7,0000.5,0015.17,0008.68,0007.35
2022-07-25 05:09:00,,0829.9,5.01,0.00,32.2,28.0,00.0,40.2,32.4,34.6,0001.2,0014.98,0008.66,0007.35
2022-07-25 05:10:00,,0829.9,5.00,0.00,32.2,28.1,00.0,40.2,32.3,34.5,0002.4,0015.15,0008.69,0007.38
2022-07-25 05:11:00,,0829.9,4.99,0.00,32.1,28.2,00.0,40.2,32.3,34.6,0002.5,0014.83,0008.70,0007.39
2022-07-25 05:12:00,,0829.8,4.99,0.00,32.1,28.3,00.0,40.2,32.3,34.8,0002.4,0014.99,0008.83,0007.45
2022-07-25 05:13:00,,0829.9,5.01,0.00,32.0,28.4,00.0,40.2,32.3,34.9,0002.2,0015.13,0008.90,0007.50
2022-07-25 05:14:00,,0829.9,5.00,0.00,32.0,28.5,00.0,40.2,32.3,35.1,0002.8,0015.79,0008.97,0007.56
2022-07-25 05:15:00,,0829.9,5.00,0.00,32.1,28.5,00.0,40.2,32.5,34.8,0002.9,0016.33,0009.06,0007.60
2022-07-25 05:16:00,,0829.9,5.00,0.00,32.2,28.6,00.0,40.2,32.5,34.6,0003.0,0017.22,0009.16,0007.65
2022-07-25 05:17:00,,0830.0,5.00,0.00,32.2,28.7,00.0,40.2,32.5,34.5,0003.0,0016.87,0009.14,0007.70
2022-07-25 05:18:00,,0830.1,5.00,0.00,32.2,28.7,00.0,40.2,32.5,34.6,0002.8,0016.47,0009.16,0007.76
2022-07-25 05:19:00,,0830.1,5.00,0.00,32.2,28.8,00.0,40.2,32.5,34.7,0002.7,0016.91,0009.35,0007.87
2022-07-25 05:20:00,,0830.1,5.00,0.00,32.1,28.8,00.0,40.3,32.5,34.7,0002.5,0017.96,0009.58,0007.98
2022-07-25 05:21:00,,0830.1,5.00,0.00,32.1,28.9,00.0,40.3,32.5,34.8,0001.5,0018.23,0009.78,0008.09
2022-07-25 05:22:00,,0830.1,4.99,0.00,32.1,28.9,00.0,40.3,32.5,34.9,0001.5,0018.38,0009.90,0008.19
2022-07-25 05:23:00,,0830.0,5.01,0.00,32.1,29.0,00.0,40.3,32.6,35.1,0001.1,0018.28,0009.90,0008.25
2022-07-25 05:24:00,,0830.1,4.99,0.00,32.2,29.0,00.0,40.3,32.7,34.7,0001.1,0018.10,0009.91,0008.27
2022-07-25 05:25:00,,0830.1,5.00,0.00,32.3,29.0,00.0,40.3,32.8,34.5,0000.8,0017.60,0009.97,0008.30
2022-07-25 05:26:00,,0830.1,5.01,0.00,32.4,29.1,00.0,40.3,32.8,34.4,0000.2,0017.09,0010.01,0008.35
2022-07-25 05:27:00,,0830.1,5.00,0.00,32.3,29.1,00.0,40.3,32.7,34.4,0000.4,0016.19,0010.00,0008.40
2022-07-25 05:28:00,,0830.1,5.00,0.00,32.3,29.1,00.0,40.4,32.7,34.5,0000.2,0016.94,0010.04,0008.43
2022-07-25 05:29:00,,0830.1,5.00,0.00,32.3,29.1,00.0,40.4,32.7,34.6,0000.3,0016.68,0010.07,0008.46
2022-07-25 05:30:00,,0830.1,5.00,0.00,32.2,29.2,00.0,40.4,32.7,34.6,-000.1,0016.37,0009.99,0008.46
2022-07-25 05:31:00,,0830.1,4.99,0.00,32.2,29.2,00.0,40.4,32.8,34.7,-000.0,0015.59,0009.92,0008.44
2022-07-25 05:32:00,,0830.1,5.00,0.00,32.2,29.2,00.0,40.4,32.8,34.8,-000.1,0015.14,0009.73,0008.39
2022-07-25 05:33:00,,0830.1,5.00,0.00,32.1,29.3,00.0,40.4,32.8,34.9,-000.7,0015.76,0009.67,0008.35
2022-07-25 05:34:00,,0830.2,5.00,0.00,32.1,29.2,00.0,40.4,32.8,35.0,-000.7,0016.01,0009.59,0008.31
2022-07-25 05:35:00,,0830.2,4.99,0.00,32.2,28.6,00.0,40.3,32.8,34.9,-000.9,0016.07,0009.56,0008.28
2022-07-25 05:36:00,,0830.2,5.01,0.00,32.3,28.0,00.0,40.2,32.8,34.8,-000.9,0016.03,0009.45,0008.23
2022-07-25 05:37:00,,0830.2,5.00,0.00,32.2,27.8,00.0,40.2,32.6,34.8,-000.8,0015.89,0009.36,0008.16
2022-07-25 05:38:00,,0830.2,5.00,0.00,32.1,27.8,00.0,40.2,32.5,35.0,-001.5,0015.86,0009.34,0008.11
2022-07-25 05:39:00,,0830.1,5.00,0.00,32.1,27.9,00.0,40.2,32.5,35.1,-001.9,0014.98,0009.26,0008.07
2022-07-25 05:40:00,,0830.2,5.00,0.00,32.2,28.0,00.0,40.2,32.6,34.8,-001.9,0014.92,0009.19,0007.99
2022-07-25 05:41:00,,0830.2,5.00,0.00,32.3,28.1,00.0,40.2,32.6,34.5,-001.9,0014.82,0009.10,0007.89
2022-07-25 05:42:00,,0830.3,5.00,0.00,32.4,28.3,00.0,40.2,32.6,34.4,-002.0,0014.96,0008.94,0007.78
2022-07-25 05:43:00,,0830.2,5.01,0.00,32.3,28.4,00.0,40.3,32.6,34.5,-001.9,0014.84,0008.84,0007.70
2022-07-25 05:44:00,,0830.3,5.00,0.00,32.3,28.5,00.0,40.3,32.5,34.6,-001.7,0014.28,0008.75,0007.62
2022-07-25 05:45:00,,0830.2,4.99,0.00,32.3,28.6,00.0,40.3,32.6,34.8,-001.2,0014.31,0008.71,0007.56
2022-07-25 05:46:00,,0830.3,5.00,0.00,32.2,28.7,00.0,40.3,32.6,34.9,-000.6,0014.13,0008.65,0007.51
2022-07-25 05:47:00,,0830.3,5.01,0.00,32.2,28.8,00.0,40.3,32.6,35.0,-000.4,0013.91,0008.62,0007.50
2022-07-25 05:48:00,,0830.3,5.00,0.00,32.2,28.8,00.0,40.3,32.7,34.9,-000.7,0013.99,0008.63,0007.49
2022-07-25 05:49:00,,0830.4,4.99,0.00,32.4,28.9,00.0,40.3,32.8,34.6,-000.2,0013.95,0008.58,0007.47
2022-07-25 05:50:00,,0830.5,5.03,0.00,32.4,28.9,00.0,40.4,32.8,34.5,0000.3,0013.99,0008.60,0007.48
2022-07-25 05:51:00,,0830.4,5.00,0.00,32.4,29.0,00.0,40.4,32.8,34.4,-000.1,0014.38,0008.62,0007.51
2022-07-25 05:52:00,,0830.5,4.99,0.00,32.4,29.0,00.0,40.4,32.8,34.5,-000.1,0014.54,0008.68,0007.58
2022-07-25 05:53:00,,0830.5,5.00,0.00,32.4,29.1,00.0,40.4,32.8,34.5,-000.1,0014.21,0008.75,0007.67
2022-07-25 05:54:00,,0830.4,5.00,0.00,32.4,29.1,00.0,40.4,32.8,34.6,0000.2,0014.31,0008.84,0007.73
2022-07-25 05:55:00,,0830.4,5.00,0.00,32.3,29.2,00.0,40.5,32.8,34.7,0000.8,0014.68,0008.95,0007.81
2022-07-25 05:56:00,,0830.4,5.00,0.00,32.3,29.2,00.0,40.5,32.8,35.0,0000.9,0014.09,0008.95,0007.84
2022-07-25 05:57:00,,0830.4,5.00,0.00,32.3,29.3,00.0,40.5,32.9,35.0,0000.3,0014.10,0008.96,0007.85
2022-07-25 05:58:00,,0830.4,5.00,0.00,32.5,29.3,00.0,40.5,33.0,34.7,0000.2,0014.09,0008.93,0007.82
2022-07-25 05:59:00,,0830.5,4.99,0.00,32.6,29.3,00.0,40.5,33.0,34.6,0000.4,0014.11,0008.88,0007.79
